Regional Weather Roundup
Issued by NWS

Home | Current Version | Previous Version | Text Only | Print | Product List | Glossary Off
Versions: 1 2 3 4 5 6 7 8 9 10 11 12 13 14 15 16 17 18 19 20 21 22 23 24 25 26 27 28

000
ASUS45 KCYS 191010
RWRWY

WYOMING REGIONAL WEATHER ROUNDUP
NATIONAL WEATHER SERVICE CHEYENNE WY
400 AM MDT SAT APR 19 2014

NOTE:  "FAIR" INDICATES FEW OR NO CLOUDS BELOW 12,000 FEET
WITH NO SIGNIFICANT WEATHER AND/OR OBSTRUCTIONS TO VISIBILITY.

WYZ001-191100-
YELLOWSTONE NATIONAL PARK

CITY           SKY/WX    TMP DP  RH WIND       PRES   REMARKS
LK YELLOWSTONE   N/A     20  17  88 CALM      30.05R
W YELLOWSTONE  NOT AVBL

$$
WYZ002>013-054>058-071-098>099-191100-
NORTHERN WYOMING

CITY           SKY/WX    TMP DP  RH WIND       PRES   REMARKS
JACKSON        MOCLDY    34  27  75 S8        30.03S WCI  27
CODY           PTCLDY    34  25  69 NW5       29.94R WCI  30
GREYBULL       PTCLDY    37  30  75 S6        29.94R WCI  32
WORLAND        PTCLDY    31  28  89 CALM      29.93R
SHERIDAN         N/A     37  25  60 SW3         N/A
BUFFALO        CLEAR     37  27  67 SW6       29.98R WCI  32
GILLETTE       CLEAR     26  23  88 SW6       29.96R WCI  19
HULETT         FAIR      41  14  33 CALM      29.96
NEWCASTLE      FAIR      34  27  75 W6        29.95  WCI  29

$$
WYZ014>020-022>026-101>103-191100-
CENTRAL WYOMING

CITY           SKY/WX    TMP DP  RH WIND       PRES   REMARKS
BIG PINEY      PTCLDY    22  12  65 CALM      30.06S
PINEDALE       SUNNY     27  19  74 NW8       30.06S WCI  18
DUBOIS         FAIR      32  14  47 NW14G20   29.97S WCI  22
LANDER         CLEAR     35  17  47 CALM      29.96R
RIVERTON       PTCLDY    35  13  40 S6        29.97R WCI  30
CASPER         PTCLDY    28  25  88 NW3       30.00R
DOUGLAS        PTCLDY    37  33  85 W3        30.01R

$$
WYZ021-027>030-104>119-191100-
SOUTHERN WYOMING

CITY           SKY/WX    TMP DP  RH WIND       PRES   REMARKS
EVANSTON       PTCLDY    38  31  76 N7        30.06S WCI  33
KEMMERER       MOSUNNY   32  21  64 N7        30.07R WCI  26
FORT BRIDGER   CLOUDY    42  30  63 NW5       30.09S
ROCK SPRINGS   MOCLDY    41  30  65 W13       30.04S
DIXON          PTSUNNY   38  32  78 CALM      30.08R
RAWLINS        PTCLDY    39  29  67 SW7       30.03S WCI  34
SARATOGA       FAIR      34  30  86 N5        30.06R WCI  30
LARAMIE        MOCLDY    39  29  67 W9        30.03S WCI  33
CHEYENNE       CLOUDY    49  31  49 NW10      29.99R
TORRINGTON     CLOUDY    48  38  68 N18G26    29.94R
PINE BLUFFS    FAIR      45  36  70 NW8       29.94F

$$



USA.gov is the U.S. government's official web portal to all federal, state and local government web resources and services.